Location: Maccacari
(45.1333°N, 11.1333°E)
Time: 11:44:43
(UTC+00:00)

A-11 Canister half - Pass Details

Date: 23 January 2021
Orbit: 1524 x 1684 km, 47.3° (Epoch: 24 February)

Event Time Altitude Azimuth Distance (km) Brightness Sun altitude
Rises 16:52:42 0° 271° (W) 4,703 13.1 -7.7°
Reaches altitude 10° 16:55:44 10° 273° (W) 3,735 12.3 -8.2°
Maximum altitude 17:05:15 79° 1° (N) 1,617 9.1 -9.8°
Enters shadow 17:14:33 12° 88° (E) 3,686 10.4 -11.3°
